timestamp,wind_dir_avg,wind_spd_avg,wind_spd_max_dir,wind_spd_gust,battery_voltage,lat,long
2022-01-09 00:04:00+00:00,323.0,16.81,320.0,20.82,12.41,47.59359,-54.27349
2022-01-09 00:14:01+00:00,322.0,13.98,309.0,18.35,12.41,47.59359,-54.27349
2022-01-09 00:24:01+00:00,320.0,14.33,313.0,18.02,12.41,47.59359,-54.27349
2022-01-09 00:34:01+00:00,329.0,14.26,326.0,18.84,12.41,47.59359,-54.27349
2022-01-09 00:44:01+00:00,332.0,11.8,320.0,15.33,12.41,47.59359,-54.27349
2022-01-09 00:54:01+00:00,324.0,13.03,323.0,15.22,12.41,47.59359,-54.27349
2022-01-09 01:04:01+00:00,322.0,12.13,308.0,15.38,12.41,47.59359,-54.27349
2022-01-09 01:14:00+00:00,326.0,12.44,321.0,15.66,12.41,47.59359,-54.27349
2022-01-09 01:24:00+00:00,324.0,13.69,317.0,17.73,12.41,47.59359,-54.27349
2022-01-09 01:34:00+00:00,321.0,12.66,319.0,15.33,12.41,47.59359,-54.27349
2022-01-09 01:44:00+00:00,324.0,10.76,315.0,15.61,12.41,47.59359,-54.27349
2022-01-09 01:54:00+00:00,313.0,11.72,309.0,15.38,12.41,47.59359,-54.27349
2022-01-09 02:04:00+00:00,324.0,11.12,333.0,15.08,12.41,47.59359,-54.27349
2022-01-09 02:14:00+00:00,316.0,12.76,321.0,16.7,12.33,47.59359,-54.27349
2022-01-09 02:24:00+00:00,324.0,11.92,322.0,13.92,12.33,47.59359,-54.27349
2022-01-09 02:34:00+00:00,321.0,12.01,326.0,14.64,12.33,47.59359,-54.27349
2022-01-09 02:44:00+00:00,321.0,14.32,307.0,16.93,12.33,47.59359,-54.27349
2022-01-09 02:54:00+00:00,324.0,12.76,325.0,16.79,12.33,47.59359,-54.27349
2022-01-09 03:04:00+00:00,327.0,14.69,329.0,17.82,12.33,47.59359,-54.27349
2022-01-09 03:14:01+00:00,327.0,13.84,329.0,16.04,12.41,47.59359,-54.27349
2022-01-09 03:24:01+00:00,324.0,11.06,323.0,14.71,12.41,47.59359,-54.27349
2022-01-09 03:34:01+00:00,321.0,12.59,325.0,15.24,12.41,47.59359,-54.27349
2022-01-09 03:44:01+00:00,325.0,10.97,327.0,13.87,12.41,47.59359,-54.27349
2022-01-09 03:54:01+00:00,321.0,9.62,315.0,13.09,12.41,47.59359,-54.27349
2022-01-09 04:04:01+00:00,316.0,9.59,316.0,11.71,12.41,47.59359,-54.27349
2022-01-09 04:14:01+00:00,298.0,9.0,301.0,12.06,12.41,47.59359,-54.27349
2022-01-09 04:24:01+00:00,297.0,8.7,305.0,11.38,12.41,47.59359,-54.27349
2022-01-09 04:34:01+00:00,307.0,7.97,303.0,10.59,12.41,47.59359,-54.27349
2022-01-09 04:44:01+00:00,305.0,8.32,301.0,11.81,12.41,47.59359,-54.27349
2022-01-09 04:54:01+00:00,303.0,8.59,297.0,11.09,12.41,47.59359,-54.27349
2022-01-09 05:04:01+00:00,302.0,8.45,296.0,10.76,12.41,47.59359,-54.27349
2022-01-09 05:14:00+00:00,306.0,10.28,307.0,12.41,12.33,47.59359,-54.27349
2022-01-09 05:24:00+00:00,310.0,9.06,311.0,11.72,12.33,47.59359,-54.27349
2022-01-09 05:34:00+00:00,306.0,9.32,298.0,11.42,12.33,47.59359,-54.27349
2022-01-09 05:44:00+00:00,313.0,8.15,305.0,11.14,12.33,47.59359,-54.27349
2022-01-09 05:54:00+00:00,304.0,9.39,295.0,11.21,12.33,47.59359,-54.27349
2022-01-09 06:04:00+00:00,318.0,7.62,308.0,10.7,12.33,47.59359,-54.27349
2022-01-09 06:14:01+00:00,289.0,8.08,297.0,10.89,12.25,47.59359,-54.27349
2022-01-09 06:24:01+00:00,285.0,8.93,281.0,10.63,12.25,47.59359,-54.27349
2022-01-09 06:34:01+00:00,304.0,10.02,303.0,12.07,12.25,47.59359,-54.27349
2022-01-09 06:44:01+00:00,303.0,9.81,305.0,12.27,12.25,47.59359,-54.27349
2022-01-09 06:54:01+00:00,304.0,10.64,318.0,13.38,12.25,47.59359,-54.27349
2022-01-09 07:04:01+00:00,301.0,9.05,301.0,10.89,12.25,47.59359,-54.27349
2022-01-09 07:14:01+00:00,283.0,7.84,279.0,9.03,12.25,47.59359,-54.27349
2022-01-09 07:24:01+00:00,302.0,9.03,297.0,10.99,12.25,47.59359,-54.27349
2022-01-09 07:34:01+00:00,297.0,8.3,292.0,10.62,12.25,47.59359,-54.27349
2022-01-09 07:44:01+00:00,300.0,9.13,300.0,11.29,12.25,47.59359,-54.27349
2022-01-09 07:54:01+00:00,297.0,9.31,299.0,11.3,12.25,47.59359,-54.27349
2022-01-09 08:04:01+00:00,297.0,10.04,298.0,11.86,12.25,47.59359,-54.27349
2022-01-09 08:14:01+00:00,295.0,9.17,303.0,11.85,12.25,47.59359,-54.27349
2022-01-09 08:24:01+00:00,302.0,9.41,306.0,11.87,12.25,47.59359,-54.27349
2022-01-09 08:34:01+00:00,306.0,9.86,307.0,10.82,12.25,47.59359,-54.27349
2022-01-09 08:44:01+00:00,287.0,7.73,293.0,10.58,12.25,47.59359,-54.27349
2022-01-09 08:54:01+00:00,298.0,8.81,293.0,10.79,12.25,47.59359,-54.27349
2022-01-09 09:04:01+00:00,284.0,8.32,286.0,9.33,12.25,47.59359,-54.27349
2022-01-09 09:14:00+00:00,294.0,8.76,294.0,10.87,12.17,47.59359,-54.27349
2022-01-09 09:24:00+00:00,300.0,9.18,292.0,11.55,12.17,47.59359,-54.27349
2022-01-09 09:34:00+00:00,299.0,9.75,293.0,11.85,12.17,47.59359,-54.27349
2022-01-09 09:44:00+00:00,305.0,10.94,309.0,12.82,12.17,47.59359,-54.27349
2022-01-09 09:54:00+00:00,308.0,9.06,309.0,10.65,12.17,47.59359,-54.27349
2022-01-09 10:04:00+00:00,303.0,11.24,287.0,13.35,12.17,47.59359,-54.27349
2022-01-09 10:14:01+00:00,305.0,12.94,299.0,15.47,12.17,47.59359,-54.27349
2022-01-09 10:24:01+00:00,291.0,15.03,290.0,18.9,12.17,47.59359,-54.27349
2022-01-09 10:34:01+00:00,293.0,14.33,299.0,19.1,12.17,47.59359,-54.27349
2022-01-09 10:44:01+00:00,284.0,12.37,280.0,17.04,12.17,47.59359,-54.27349
2022-01-09 10:54:01+00:00,286.0,16.09,287.0,19.17,12.17,47.59359,-54.27349
2022-01-09 11:04:01+00:00,291.0,12.71,285.0,19.05,12.17,47.59359,-54.27349
2022-01-09 11:14:00+00:00,290.0,12.77,287.0,18.45,12.17,47.59359,-54.27349
2022-01-09 11:24:00+00:00,288.0,10.94,292.0,12.6,12.17,47.59359,-54.27349
2022-01-09 11:34:00+00:00,293.0,12.02,288.0,17.18,12.17,47.59359,-54.27349
2022-01-09 11:44:00+00:00,305.0,12.41,302.0,15.41,12.17,47.59359,-54.27349
2022-01-09 11:54:00+00:00,296.0,9.95,289.0,12.59,12.17,47.59359,-54.27349
2022-01-09 12:04:00+00:00,287.0,10.73,284.0,13.86,12.17,47.59359,-54.27349
2022-01-09 12:14:01+00:00,291.0,12.77,288.0,17.33,12.25,47.59359,-54.27349
2022-01-09 12:24:01+00:00,303.0,11.27,299.0,13.07,12.25,47.59359,-54.27349
2022-01-09 12:34:01+00:00,294.0,13.26,291.0,17.74,12.25,47.59359,-54.27349
2022-01-09 12:44:01+00:00,296.0,13.07,291.0,17.14,12.25,47.59359,-54.27349
2022-01-09 12:54:01+00:00,295.0,13.77,291.0,18.22,12.25,47.59359,-54.27349
2022-01-09 13:04:01+00:00,293.0,12.55,289.0,17.65,12.25,47.59359,-54.27349
2022-01-09 13:14:01+00:00,295.0,12.76,301.0,15.29,13.68,47.59359,-54.27349
2022-01-09 13:24:01+00:00,283.0,10.84,282.0,12.55,13.68,47.59359,-54.27349
2022-01-09 13:34:01+00:00,293.0,8.62,286.0,11.59,13.68,47.59359,-54.27349
2022-01-09 13:44:01+00:00,296.0,9.62,296.0,11.56,13.68,47.59359,-54.27349
2022-01-09 13:54:01+00:00,276.0,9.35,277.0,13.35,13.68,47.59359,-54.27349
2022-01-09 14:04:01+00:00,295.0,8.48,302.0,10.34,13.68,47.59359,-54.27349
2022-01-09 16:14:01+00:00,272.0,10.08,267.0,13.63,13.84,47.59359,-54.27349
2022-01-09 16:24:01+00:00,275.0,9.88,272.0,13.48,13.84,47.59359,-54.27349
2022-01-09 16:34:01+00:00,272.0,13.33,275.0,14.87,13.84,47.59359,-54.27349
2022-01-09 16:44:01+00:00,276.0,13.44,281.0,14.95,13.84,47.59359,-54.27349
2022-01-09 16:54:01+00:00,281.0,9.59,277.0,13.39,13.84,47.59359,-54.27349
2022-01-09 17:04:01+00:00,279.0,9.66,278.0,13.04,13.84,47.59359,-54.27349
2022-01-09 17:14:01+00:00,279.0,13.3,276.0,14.34,13.68,47.59359,-54.27349
2022-01-09 17:24:01+00:00,282.0,10.74,284.0,14.08,13.68,47.59359,-54.27349
2022-01-09 17:34:01+00:00,275.0,12.37,275.0,14.29,13.68,47.59359,-54.27349
2022-01-09 17:44:01+00:00,273.0,10.66,276.0,13.52,13.68,47.59359,-54.27349
2022-01-09 17:54:01+00:00,266.0,8.67,267.0,13.72,13.68,47.59359,-54.27349
2022-01-09 18:04:01+00:00,279.0,5.25,285.0,7.48,13.68,47.59359,-54.27349
2022-01-09 18:14:01+00:00,266.0,4.66,272.0,6.04,13.76,47.59359,-54.27349
2022-01-09 18:24:01+00:00,274.0,4.44,270.0,5.53,13.76,47.59359,-54.27349
2022-01-09 18:34:01+00:00,272.0,6.32,271.0,8.89,13.76,47.59359,-54.27349
2022-01-09 18:44:01+00:00,261.0,7.1,256.0,8.48,13.76,47.59359,-54.27349
2022-01-09 18:54:01+00:00,262.0,5.2,272.0,9.09,13.76,47.59359,-54.27349
2022-01-09 19:04:01+00:00,259.0,6.05,267.0,7.52,13.76,47.59359,-54.27349
2022-01-09 19:14:00+00:00,253.0,5.06,264.0,8.6,13.21,47.59359,-54.27349
2022-01-09 19:24:00+00:00,248.0,6.85,263.0,10.05,13.21,47.59359,-54.27349
2022-01-09 19:34:00+00:00,251.0,8.78,260.0,10.69,13.21,47.59359,-54.27349
2022-01-09 19:44:00+00:00,249.0,9.01,248.0,10.45,13.21,47.59359,-54.27349
2022-01-09 19:54:00+00:00,240.0,10.8,243.0,12.36,13.21,47.59359,-54.27349
2022-01-09 20:04:00+00:00,240.0,8.4,247.0,9.91,13.21,47.59359,-54.27349
2022-01-09 20:14:01+00:00,231.0,7.97,238.0,10.82,12.65,47.59359,-54.27349
2022-01-09 20:24:01+00:00,223.0,6.6,237.0,9.2,12.65,47.59359,-54.27349
2022-01-09 20:34:01+00:00,231.0,9.38,236.0,11.25,12.65,47.59359,-54.27349
2022-01-09 20:44:01+00:00,237.0,9.44,236.0,11.12,12.65,47.59359,-54.27349
2022-01-09 20:54:01+00:00,234.0,10.71,241.0,12.38,12.65,47.59359,-54.27349
2022-01-09 21:04:01+00:00,241.0,10.72,249.0,16.73,12.65,47.59359,-54.27349
2022-01-09 21:14:00+00:00,235.0,11.46,235.0,13.74,12.57,47.59359,-54.27349
2022-01-09 21:24:00+00:00,239.0,10.51,245.0,12.25,12.57,47.59359,-54.27349
2022-01-09 21:34:00+00:00,244.0,10.8,253.0,12.83,12.57,47.59359,-54.27349
2022-01-09 21:44:00+00:00,242.0,10.57,243.0,12.79,12.57,47.59359,-54.27349
2022-01-09 21:54:00+00:00,241.0,9.58,244.0,12.18,12.57,47.59359,-54.27349
2022-01-09 22:04:00+00:00,241.0,11.35,242.0,13.18,12.57,47.59359,-54.27349
2022-01-09 22:14:01+00:00,230.0,10.35,223.0,12.06,12.57,47.59359,-54.27349
2022-01-09 22:24:01+00:00,250.0,11.94,257.0,16.16,12.57,47.59359,-54.27349
2022-01-09 22:34:01+00:00,247.0,12.18,256.0,14.34,12.57,47.59359,-54.27349
2022-01-09 22:44:01+00:00,244.0,12.2,249.0,16.04,12.57,47.59359,-54.27349
2022-01-09 22:54:01+00:00,245.0,12.89,251.0,17.3,12.57,47.59359,-54.27349
2022-01-09 23:04:01+00:00,242.0,15.12,245.0,18.33,12.57,47.59359,-54.27349
2022-01-09 23:14:00+00:00,237.0,12.87,241.0,17.17,12.49,47.59359,-54.27349
2022-01-09 23:24:00+00:00,232.0,10.5,236.0,12.18,12.49,47.59359,-54.27349
2022-01-09 23:34:00+00:00,229.0,11.73,229.0,14.05,12.49,47.59359,-54.27349
2022-01-09 23:44:00+00:00,231.0,10.89,231.0,13.36,12.49,47.59359,-54.27349
2022-01-09 23:54:00+00:00,235.0,11.95,243.0,15.66,12.49,47.59359,-54.27349
